SCP
0 0 0 0 0 0 0 0 0 0 0 0 0 0 0 0 0 0 0 0 0 0 0 0 0 0 0 0 0 0 0 0 0 0 0 0 0 0 0 0 0 0 0 0 0 0 0 0 0 0 0 0 0 0
0 0 0 0 0 0 0 0 0 0 0 0 0 0 0 0 0 0 0 0 0 0 0 0 0 0 0 0 0 0 0 0 0 0 0 0 0 0 0 0 0 0 0 0 0 0 0 0 0 0 0 0 0 0
0 0 0 0 0 0 0 0 0 0 0 0 0 0 0 0 0 0 0 0 0 0 0 0 0 0 0 0 0 0 0 0 0 0 0 0 0 0 0 0 0 0 0 0 0 0 0 0 0 0 0 0 0 0
0 0 0 0 0 0 0 0 0 0 0 0 0 0 0 0 0 0 0 0 0 0 0 0 0 0 0 0 0 0 0 0 0 0 0 0 0 0 0 0 0 0 0 0 0 0 0 0 0 0 0 0 0 0
0 0 0 0 0 0 0 0 0 0 0 0 0 0 -0 0 0 0 0 0 0 0 0 0 -0 0 0 0 0 0 0 0 0 0 0 0 0 0 0 0 0 0 0 0 0 0 0 0 0 0 0 0 0 0
0 0 0 0 0 0 0 0 0 0 0 0 0 0 0 0 0 0 0 0 0 0 0 0 0 0 0 0 0 -0 0 0 0 0 0 0 0 0 0 0 0 0 0 0 0 0 0 0 0 0 0 0 0 0
0 0 0 0 0 0 0 0 0 0 0 0 0 0 0 0 0 0 0 0 0 0 0 0 0 0 0 0 0 0 0 0 0 0 0 0 0 0 0 0 0 0 0 0 0 0 0 0 0 0 0 0 0 0
0 0 0 0 0 0 0 0 0 0 0 0 0 0 0 0 0 0 0 0 0 0 -0 -0 -0 0 -0 0 0 0 0 0 0 0 0 0 0 0 0 0 0 0 0 0 0 0 0 0 0 0 0 0 0 -0
0 0 0 0 0 -0 0 0 0 0 0 0 0 0 0 0 0 0 -0 -0 -0 -0 -0 -0 0 0 -0 -0 -0 0 -0 0 0 0 0 0 0 0 0 0 0 0 0 0 0 -0 0 0 0 0 0 0 -0 -0
0 0 0 0 0 0 0 0 0 0 0 0 -0 -0 -0 0 -0 -0 -0 0 0 0 0 0 0 0 0 -0 0 0 0 0 0 0 0 0 0 0 0 0 0 0 0 0 0 0 0 0 0 0 0 -0 -0 0
0 0 0 0 0 0 0 0 0 0 -0 -0 0 0 0 0 0 0 0 0 0 0 0 0 0 0 -0 0 0 0 0 0 0 0 0 0 0 0 0 0 0 0 0 0 0 0 0 0 0 0 -0 -0 0 -0
0 0 0 0 -0 0 -0 0 0 0 -0 0 0 0 0 0 0 0 0 0 0 -0 0 0 0 0 0 0 0 0 0 0 0 0 0 0 0 0 -0 -0 -0 0 0 0 0 0 0 0 0 -0 -0 0 0 -0
0 0 0 0 0 -0 -0 0 0 -0 -0 0 0 0 0 0 0 0 -0 0 0 -0 -0 0 0 0 0 0 0 0 0 0 0 0 0 0 0 0 -0 -0 -0 0 0 0 0 0 0 0 -0 -0 0 0 -0 -0
0 0 0 0 -0 -0 -0 -0 0 0 0 0 0 0 0 0 0 0 0 0 0 0 -0 0 0 0 0 0 0 0 0 0 0 0 0 -0 0 -0 0 0 -0 0 0 0 0 -0 -0 0 0 0 0 -0 -0 -0
0 0 0 -0 -0 -0 0 0 -0 0 0 0 0 0 0 0 -0 -0 -0 0 0 0 0 0 0 0 0 0 0 0 0 0 0 0 -0 -0 -0 -0 0 0 0 0 0 0 0 -0 -0 -0 -0 -0 -0 -0 -0 0
0 0 0 -0 -0 -0 -0 -0 0 0 0 0 0 0 0 0 -0 0 0 0 0 0 0 0 0 0 0 0 0 0 0 0 0 0 -0 -0 -0 -0 0 0 0 0 0 0 0 0 0 0 -0 0 0 0 0 0
0 0 0 -0 -0 -0 -0 0 0 0 0 0 0 -0 0 0 -0 0 0 0 0 0 0 0 0 0 0 0 0 0 0 0 0 -0 -0 0 0 0 0 0 0 0 0 0 -0 0 0 0 0 0 0 0 0 0
0 0 0 -0 -0 0 0 0 0 0 -0 0 0 -0 0 0 -0 0 0 -0 0 0 0 0 0 0 0 0 0 0 0 0 0 0 0 0 0 0 0 -0 -0 0 -0 -0 0 -0 -0 0 0 0 0 0 0 0
-0 0 -0 -0 -0 0 0 0 0 -0 0 -0 0 -0 0 0 -0 0 -0 -0 0 0 0 0 0 0 0 0 0 0 0 0 0 0 0 -0 0 0 0 0 0 -0 -0 0 0 0 -0 0 0 0 0 -0 0 0
0 0 -0 -0 -0 0 0 -0 0 -0 0 0 0 0 0 0 0 -0 -0 0 0 0 0 0 0 0 0 0 0 0 0 0 0 0 0 0 -0 -0 0 0 0 -0 -0 -0 0 0 0 0 0 -0 -0 0 0 0
0 0 0 0 0 0 0 0 0 0 0 0 0 0 0 0 -0 -0 -0 0 0 0 0 0 0 0 0 0 0 0 0 0 0 0 0 0 0 -0 -0 -0 0 0 0 -0 -0 -0 0 -0 -0 -0 0 0 0 0
0 0 0 0 0 0 0 0 -0 0 0 0 0 0 0 0 0 -0 -0 0 0 0 0 0 0 0 0 0 0 0 0 0 0 0 0 0 0 0 0 0 0 0 -0 0 0 0 0 -0 -0 -0 0 0 0 0
0 0 0 0 0 0 0 0 0 0 0 0 0 0 0 0 0 0 0 0 0 0 0 0 0 0 0 0 0 0 0 0 0 0 0 0 0 0 0 0 0 -0 -0 0 -0 -0 -0 0 -0 0 0 0 0 0
0 0 0 0 0 0 0 0 0 0 0 0 0 0 0 0 0 0 0 0 0 0 0 0 0 0 0 0 -0 -0 0 0 0 0 -0 -0 0 0 0 -0 0 -0 -0 -0 -0 -0 0 -0 0 0 0 0 0 0
0 0 0 0 0 0 0 0 0 0 0 0 0 0 0 0 0 0 0 0 0 0 0 0 0 -0 -0 -0 -0 -0 -0 0 0 0 0 -0 -0 -0 -0 -0 -0 -0 -0 -0 -0 -0 -0 -0 0 0 0 0 0 0
0 0 0 0 0 0 0 0 0 0 0 0 0 0 0 0 0 0 0 0 0 0 0 0 0 0 0 -0 -0 0 0 0 0 -0 -0 -0 -0 -0 -0 -0 -0 -0 -0 -0 -0 -0 -0 0 0 -0 -0 0 0 0
0 -0 -0 0 0 0 0 0 0 0 0 0 0 0 0 0 0 0 0 0 0 0 0 0 0 0 0 0 0 0 0 -0 -0 -0 -0 -0 0 -0 -0 -0 -0 -0 -0 -0 -0 -0 -0 0 -0 -0 0 0 0 0
0 0 -0 -0 -0 -0 0 0 0 0 0 0 0 0 0 0 0 0 0 0 0 0 0 0 0 0 0 0 0 0 0 0 -0 0 0 -0 -0 0 -0 -0 -0 -0 -0 -0 -0 -0 -0 -0 -0 0 0 0 0 0
0 0 0 -0 -0 0 0 0 0 0 0 0 0 0 0 0 0 0 0 0 0 0 0 0 0 0 0 0 0 0 -0 -0 -0 0 0 -0 -0 -0 -0 -0 -0 -0 -0 -0 0 0 0 0 0 0 0 0 0 0
0 0 0 0 -0 -0 -0 -0 -0 0 0 0 0 0 0 0 0 0 0 0 0 0 0 0 0 0 0 0 0 0 0 0 0 0 0 0 -0 0 0 0 0 -0 -0 0 -0 0 0 -0 0 0 0 0 0 0
0 0 0 0 0 0 0 0 0 0 0 0 0 0 0 0 0 0 0 0 0 0 0 0 0 0 0 0 0 0 0 0 0 0 0 0 0 0 0 0 0 -0 -0 0 0 0 0 0 0 0 0 0 0 0
0 0 0 0 -0 -0 0 0 0 0 0 0 0 0 0 0 0 0 0 0 0 0 0 0 0 0 0 0 0 0 0 0 0 0 0 0 0 0 0 0 0 0 0 0 0 0 0 0 0 0 0 0 0 0
0 0 0 0 0 0 0 0 0 0 0 0 0 0 0 0 0 0 -0 -0 0 0 0 0 0 0 0 0 0 0 0 0 0 0 -0 -0 -0 -0 0 0 0 0 0 0 0 0 0 0 0 0 0 0 0 0
Wind_Speed_500mb
42 44 43 41 40 38 36 32 28 26 29 29 25 24 26 20 17 11 18 17 19 26 50 51 42 42 41 39 24 25 16 29 20 26 26 26 24 26 31 32 31 18 17 23 32 27 26 12 13 11 13 4 11 19
41 41 40 38 37 35 33 30 27 24 22 24 22 22 23 21 22 23 23 21 19 23 46 50 49 48 46 39 31 21 25 26 9 10 14 10 14 13 23 20 21 22 19 7 9 3 10 10 11 7 9 13 19 20
36 37 37 37 37 35 34 32 30 28 24 24 25 23 25 26 25 20 27 24 22 26 48 43 34 26 28 31 36 51 41 23 17 8 8 8 11 7 13 20 13 13 9 10 5 18 14 9 3 10 9 10 16 18
35 36 37 37 36 35 34 30 30 27 26 26 27 24 26 26 25 23 23 20 22 17 18 24 9 13 18 22 25 29 46 26 25 28 13 8 8 15 5 6 15 3 8 15 8 19 19 21 5 8 7 9 11 17
36 38 38 38 36 35 33 30 28 26 28 29 31 28 29 28 28 24 27 26 21 19 16 43 50 33 26 24 36 37 34 30 36 26 18 17 11 9 18 12 13 19 4 10 7 10 3 17 6 2 7 11 12 14
37 37 38 37 35 32 32 29 29 27 26 28 30 25 24 25 17 19 10 12 17 26 11 10 15 22 17 17 18 27 28 27 29 11 16 16 14 16 6 12 19 23 14 7 8 9 5 2 5 3 6 7 8 9
35 34 35 34 32 31 28 24 23 19 23 26 22 21 24 21 18 21 12 13 22 26 8 12 7 4 3 17 17 21 22 20 22 22 13 15 13 13 9 13 10 14 6 12 12 4 3 1 3 6 5 5 6 9
31 32 31 33 31 27 18 17 14 19 19 19 23 24 22 22 26 24 19 21 17 16 12 7 11 7 10 7 8 18 14 19 14 10 11 15 15 18 8 18 22 12 15 18 13 6 4 2 2 2 0 5 9 13
28 29 28 24 23 13 15 12 17 18 17 19 21 20 18 12 10 7 19 24 19 16 13 9 12 8 5 5 11 15 15 9 11 12 13 9 7 7 8 9 17 21 10 10 13 10 9 4 8 7 7 9 13 16
28 28 25 22 23 11 6 13 17 16 21 19 15 8 7 4 11 17 6 7 11 11 12 17 17 11 13 10 7 5 8 4 9 13 11 7 7 6 14 17 21 18 16 12 10 17 14 9 9 10 13 14 14 15
24 26 26 25 21 14 12 12 12 19 15 8 5 5 10 15 7 7 10 14 10 7 7 7 17 17 6 8 3 7 4 6 5 7 8 5 4 12 14 17 12 11 15 12 17 17 13 11 10 13 15 15 14 13
27 25 20 23 27 13 4 11 13 9 10 9 11 13 10 8 10 9 6 5 8 2 7 5 10 13 14 8 6 3 2 5 1 3 4 3 2 14 24 23 22 20 23 20 19 19 16 17 18 21 21 21 18 14
26 28 15 17 17 12 10 10 11 7 8 6 6 7 6 6 5 7 5 5 8 13 5 8 8 7 10 8 10 4 4 5 4 3 2 7 17 28 28 28 28 24 23 23 22 21 23 24 24 25 26 25 21 17
25 27 23 16 13 10 6 10 12 5 6 6 6 7 5 2 8 8 12 11 22 23 22 17 8 6 7 6 3 5 3 4 5 5 8 15 20 29 29 28 27 25 23 24 22 22 21 20 19 19 20 20 22 23
16 24 30 26 10 7 9 13 10 6 7 8 9 6 7 15 10 14 19 23 18 25 16 5 7 6 5 6 5 7 3 4 7 11 13 22 19 26 27 26 26 25 24 21 20 20 16 12 11 13 13 14 18 24
15 17 19 22 19 12 10 13 16 6 6 7 8 11 15 7 18 16 22 21 25 17 5 6 5 5 4 5 6 9 10 8 8 18 25 22 21 27 25 23 21 21 21 18 17 16 11 6 5 5 8 12 16 22
14 10 19 21 20 16 18 13 7 5 7 7 5 7 17 16 20 22 20 27 29 19 4 5 1 7 6 6 6 8 5 9 17 32 26 19 21 20 20 21 18 16 15 13 12 10 6 2 3 5 10 12 15 25
8 18 21 24 25 14 8 8 7 5 7 5 11 19 16 15 21 22 25 28 29 26 17 9 12 9 8 9 4 6 4 25 26 24 21 18 16 16 16 14 12 11 11 9 8 6 3 4 8 8 9 12 10 24
14 17 19 19 23 8 6 6 4 9 5 9 14 11 13 12 12 17 23 26 26 21 10 12 9 7 5 7 6 19 23 22 21 25 22 19 16 15 13 12 10 8 7 7 9 6 2 4 6 10 12 17 16 18
16 15 22 18 13 5 6 1 4 8 9 12 14 11 9 11 9 15 24 26 28 11 12 8 6 12 12 10 4 11 18 17 16 29 28 23 21 18 13 13 13 10 8 7 8 8 11 6 4 7 12 11 15 19
16 20 20 14 4 4 4 7 7 5 11 10 10 8 4 4 10 19 24 21 22 12 10 15 24 24 15 14 16 20 26 26 27 23 20 14 13 12 11 10 5 8 5 7 9 4 3 7 9 11 12 10 12 16
17 24 7 7 3 4 6 5 11 13 7 10 8 5 4 2 12 16 25 23 11 12 22 25 26 22 16 23 22 21 20 18 15 19 14 14 16 17 15 10 5 8 12 10 8 10 11 10 14 14 9 10 4 13
20 13 6 4 4 4 6 6 5 7 7 10 10 3 2 2 7 2 10 11 10 21 25 25 22 10 13 20 20 21 20 16 13 7 15 13 12 12 11 13 15 11 6 9 10 11 16 15 11 12 10 6 6 10
14 4 4 4 4 8 4 2 2 3 5 5 5 3 7 6 4 7 9 8 16 21 23 29 26 22 15 18 23 22 21 19 13 12 14 14 13 12 13 11 12 13 16 13 14 16 22 21 12 9 9 7 3 9
6 2 5 8 3 6 7 9 6 2 4 5 5 6 7 6 1 6 6 9 17 19 24 25 21 21 24 19 19 21 23 21 17 17 16 16 15 15 13 13 11 12 15 21 23 25 22 19 16 13 11 6 4 14
5 2 3 10 7 7 8 6 7 9 6 5 6 8 11 6 7 7 7 14 13 17 22 25 26 24 20 18 22 21 20 17 16 16 17 18 16 17 21 25 22 21 28 22 24 25 24 21 17 12 3 1 13 13
5 4 7 7 5 6 7 8 10 2 7 9 6 7 8 6 7 6 6 10 13 15 18 18 17 20 18 19 19 19 18 16 15 11 12 16 16 19 19 20 20 23 24 20 21 21 24 27 29 15 3 4 3 6
4 5 3 1 5 2 5 7 6 8 8 9 6 5 4 4 4 7 5 9 9 17 13 12 14 15 16 12 15 17 19 18 14 17 6 13 16 22 26 23 25 32 26 21 21 22 22 22 23 20 5 9 10 9
3 4 3 2 3 3 4 6 8 8 10 10 9 5 2 3 2 5 4 9 10 9 9 10 14 15 16 12 10 11 15 18 19 21 21 21 24 25 27 26 25 26 26 28 31 28 27 24 13 1 10 17 17 14
2 3 2 2 3 2 3 4 5 8 7 4 1 2 4 3 3 3 6 6 8 11 8 8 9 13 15 17 15 16 14 15 18 19 20 23 26 28 27 27 27 28 27 26 26 25 26 20 15 4 9 9 10 14
2 1 2 2 1 6 5 4 4 3 3 4 3 4 1 1 2 5 11 8 6 9 9 8 9 9 12 14 16 17 15 18 18 18 23 21 23 26 30 30 27 26 27 27 24 23 24 24 12 9 17 8 8 7
1 3 4 1 4 5 4 2 1 1 2 2 2 2 2 3 4 10 12 9 7 6 4 4 7 8 12 13 14 16 21 19 20 24 34 34 34 35 33 29 28 28 26 26 22 22 23 19 18 12 12 19 11 15
4 2 3 2 7 6 6 6 5 2 3 1 2 1 4 6 2 8 8 10 10 11 12 11 10 11 14 13 16 16 19 19 33 39 45 47 39 33 28 26 28 23 21 19 19 20 19 19 15 10 16 17 12 19
Wind_Direction_500mb
304 305 306 307 307 307 307 304 301 316 336 342 315 316 324 318 308 296 294 283 280 279 278 280 280 279 275 273 278 304 306 231 245 239 249 250 252 246 249 252 190 224 214 220 230 235 245 173 157 245 64 8 322 322
306 306 307 307 308 307 304 300 288 290 312 337 329 314 311 311 308 288 285 265 265 265 275 286 273 264 258 256 269 262 275 297 316 286 244 268 231 247 227 236 238 214 217 252 239 74 111 141 83 37 349 314 303 319
305 306 307 307 306 304 302 301 288 273 287 309 307 292 299 295 307 286 282 279 284 286 295 273 267 256 246 253 252 249 250 268 264 298 291 306 271 282 233 238 214 246 196 225 158 179 178 165 262 271 288 342 347 315
308 308 308 307 306 304 301 299 299 273 276 288 301 293 295 291 294 295 280 285 282 287 285 297 317 261 257 253 244 236 244 243 282 273 277 259 282 340 341 278 242 59 282 242 224 232 195 224 100 50 309 291 297 316
311 310 308 306 305 302 297 293 291 272 270 281 288 297 293 289 280 290 285 277 267 260 296 297 294 291 258 250 238 239 245 244 244 261 245 243 259 264 243 253 240 186 235 241 294 351 335 97 77 318 296 320 321 321
319 315 311 308 306 304 298 291 284 279 266 290 290 294 296 298 287 295 292 222 263 255 305 285 308 265 235 236 254 231 218 231 226 262 252 253 210 241 263 260 257 275 208 259 291 143 53 164 242 272 309 316 323 319
319 318 319 316 307 304 301 296 293 280 279 293 292 296 296 281 273 258 272 322 299 303 262 270 282 7 263 281 273 211 191 207 230 241 248 251 209 212 246 241 316 144 162 183 138 163 236 84 257 312 297 294 307 316
329 327 325 320 312 307 296 309 309 297 297 297 291 295 293 286 280 275 270 256 263 258 250 266 286 210 3 329 288 185 185 202 221 246 262 246 173 215 218 245 182 142 170 158 171 181 213 307 256 68 299 304 309 311
345 338 335 339 336 324 304 286 308 304 300 299 305 306 294 263 245 235 264 259 265 237 302 257 288 336 291 255 261 198 180 206 217 229 229 252 200 214 236 199 153 161 148 143 176 189 142 123 66 47 10 331 319 324
353 355 351 341 346 322 325 311 317 308 315 319 319 263 253 227 294 286 290 189 213 219 235 270 299 288 309 356 304 168 187 267 191 212 184 221 230 193 157 130 127 147 149 168 178 158 130 107 56 17 7 353 342 340
355 355 353 342 334 315 317 314 318 319 334 327 295 282 311 308 286 246 229 210 186 223 222 297 304 308 280 276 25 157 203 273 244 183 186 206 213 155 176 171 178 165 158 155 108 96 100 77 44 27 19 18 18 16
353 351 354 353 358 343 246 316 327 354 303 291 296 297 288 260 246 261 253 240 233 42 165 270 311 306 298 304 293 9 292 252 144 136 153 158 139 130 135 142 130 131 135 123 121 111 96 80 66 58 50 41 34 30
354 353 350 345 351 13 352 350 340 329 331 307 276 255 232 237 301 259 29 356 9 8 31 313 323 291 275 250 266 214 300 41 133 83 254 111 156 155 121 123 123 124 118 122 119 115 106 90 76 67 57 46 36 25
11 21 19 357 341 344 359 339 336 332 3 298 302 289 266 317 17 12 357 353 330 324 328 329 284 242 282 277 307 273 265 117 210 195 87 131 130 115 124 120 128 118 123 126 123 125 117 99 80 66 54 44 34 26
20 23 20 1 17 0 347 348 17 28 322 298 301 309 353 29 50 19 355 314 328 331 333 274 260 255 283 277 257 268 247 33 0 97 117 123 120 120 116 110 116 123 127 126 128 133 127 117 85 61 44 31 26 16
18 23 1 17 22 15 1 358 11 333 296 294 299 327 6 349 15 9 334 354 341 319 273 244 295 269 252 294 331 39 334 5 94 98 104 115 112 115 121 118 120 124 123 122 128 135 124 113 70 46 20 11 9 3
34 357 352 359 4 11 7 20 345 306 313 280 302 343 338 347 344 351 353 2 358 1 7 206 242 28 353 304 47 2 27 91 99 93 95 100 112 121 123 123 126 131 128 127 134 146 138 108 342 337 356 349 355 1
4 335 344 355 0 1 352 354 324 300 271 331 326 5 346 333 338 358 355 5 7 5 356 3 325 22 19 17 25 308 159 93 76 81 80 88 103 116 123 131 136 139 143 153 164 159 173 294 323 330 331 340 337 1
325 327 337 344 358 40 340 340 358 291 314 346 336 352 325 340 3 354 13 16 6 358 5 12 34 16 343 303 302 69 66 68 81 83 84 80 90 99 109 121 125 129 146 170 186 202 110 338 347 348 353 2 1 5
354 357 354 352 17 352 307 316 330 278 304 3 320 340 336 6 356 23 40 21 4 34 46 34 16 312 315 356 52 36 42 71 75 85 79 74 84 82 71 83 96 130 130 146 177 233 258 306 321 359 352 353 6 3
3 322 342 31 330 328 288 311 266 330 325 305 356 324 329 15 53 47 49 30 38 28 15 357 -0 348 357 50 44 45 43 49 58 65 47 53 67 86 93 85 67 72 80 97 162 146 167 15 8 354 345 357 358 8
310 332 17 10 328 314 283 310 303 311 280 299 285 310 328 38 82 59 62 38 32 356 357 355 1 355 50 55 49 44 41 58 76 74 27 15 57 59 47 43 69 64 73 66 41 21 12 4 355 346 332 338 9 19
343 2 6 325 319 275 276 339 295 332 305 342 313 259 152 54 69 92 83 39 20 357 359 3 357 21 47 65 58 47 33 33 73 15 14 20 42 43 43 47 47 62 69 39 11 350 351 353 328 344 344 11 349 21
353 352 309 303 293 283 315 259 250 291 292 294 267 243 69 36 10 75 83 63 5 360 7 7 11 34 59 53 47 34 33 36 29 55 30 21 40 43 32 39 55 37 21 18 356 19 349 353 352 23 2 349 36 6
304 321 277 255 265 332 312 349 354 21 301 13 343 35 36 343 129 64 70 53 21 13 0 6 18 18 20 32 34 39 34 34 39 35 29 21 0 19 14 359 12 48 27 12 360 347 351 4 2 9 1 354 92 21
272 152 254 18 24 8 340 305 346 1 30 4 44 5 2 358 52 55 53 13 8 6 2 1 359 8 19 31 24 24 17 20 20 34 20 13 12 357 345 339 345 352 357 358 341 333 328 336 351 333 348 267 226 332
266 97 88 24 20 341 307 300 325 351 42 12 38 20 12 35 48 56 27 360 5 6 358 352 351 4 13 24 22 19 16 13 16 17 26 21 19 11 4 355 346 335 341 347 337 332 326 337 336 332 256 173 311 70
309 6 62 119 16 314 283 305 325 19 45 3 346 62 44 22 27 9 6 18 11 11 350 355 3 5 5 5 18 15 20 23 19 8 347 11 9 357 3 358 348 349 350 338 331 332 328 325 323 326 147 191 267 127
307 17 15 85 40 304 315 345 14 41 4 354 1 64 58 45 24 4 16 352 354 343 347 356 360 11 11 3 7 8 7 12 10 7 3 353 350 346 346 348 344 343 343 341 343 349 352 347 345 66 175 302 258 191
91 348 299 118 126 298 41 16 12 345 351 344 348 89 98 86 68 1 354 346 339 346 345 348 351 9 6 4 5 7 8 6 5 0 349 344 338 333 334 335 338 338 334 341 345 344 348 342 343 317 273 333 248 217
328 66 308 289 86 56 34 34 44 63 21 24 53 89 105 126 148 51 5 354 318 316 328 348 1 349 2 8 1 349 340 346 347 345 331 334 324 322 324 331 328 324 325 330 332 332 335 338 307 231 302 231 245 179
120 234 299 237 115 121 107 102 23 341 41 12 149 159 244 239 69 20 1 29 27 25 348 298 304 327 340 340 334 335 331 329 320 334 328 322 316 317 316 322 319 315 321 321 323 320 324 331 333 275 232 271 260 193
146 156 329 115 148 181 174 188 171 90 342 148 133 79 23 47 44 16 4 355 354 3 359 343 342 326 322 333 326 333 336 328 317 328 324 323 324 321 316 318 321 326 325 322 313 313 319 324 320 248 215 270 250 197
Wind_Speed_850mb
42 44 43 41 40 38 36 32 28 26 29 29 25 24 26 20 17 11 18 17 19 26 50 51 42 42 41 39 24 25 16 29 20 26 26 26 24 26 31 32 31 18 17 23 32 27 26 12 13 11 13 4 11 19
41 41 40 38 37 35 33 30 27 24 22 24 22 22 23 21 22 23 23 21 19 23 46 50 49 48 46 39 31 21 25 26 9 10 14 10 14 13 23 20 21 22 19 7 9 3 10 10 11 7 9 13 19 20
36 37 37 37 37 35 34 32 30 28 24 24 25 23 25 26 25 20 27 24 22 26 48 43 34 26 28 31 36 51 41 23 17 8 8 8 11 7 13 20 13 13 9 10 5 18 14 9 3 10 9 10 16 18
35 36 37 37 36 35 34 30 30 27 26 26 27 24 26 26 25 23 23 20 22 17 18 24 9 13 18 22 25 29 46 26 25 28 13 8 8 15 5 6 15 3 8 15 8 19 19 21 5 8 7 9 11 17
36 38 38 38 36 35 33 30 28 26 28 29 31 28 29 28 28 24 27 26 21 19 16 43 50 33 26 24 36 37 34 30 36 26 18 17 11 9 18 12 13 19 4 10 7 10 3 17 6 2 7 11 12 14
37 37 38 37 35 32 32 29 29 27 26 28 30 25 24 25 17 19 10 12 17 26 11 10 15 22 17 17 18 27 28 27 29 11 16 16 14 16 6 12 19 23 14 7 8 9 5 2 5 3 6 7 8 9
35 34 35 34 32 31 28 24 23 19 23 26 22 21 24 21 18 21 12 13 22 26 8 12 7 4 3 17 17 21 22 20 22 22 13 15 13 13 9 13 10 14 6 12 12 4 3 1 3 6 5 5 6 9
31 32 31 33 31 27 18 17 14 19 19 19 23 24 22 22 26 24 19 21 17 16 12 7 11 7 10 7 8 18 14 19 14 10 11 15 15 18 8 18 22 12 15 18 13 6 4 2 2 2 0 5 9 13
28 29 28 24 23 13 15 12 17 18 17 19 21 20 18 12 10 7 19 24 19 16 13 9 12 8 5 5 11 15 15 9 11 12 13 9 7 7 8 9 17 21 10 10 13 10 9 4 8 7 7 9 13 16
28 28 25 22 23 11 6 13 17 16 21 19 15 8 7 4 11 17 6 7 11 11 12 17 17 11 13 10 7 5 8 4 9 13 11 7 7 6 14 17 21 18 16 12 10 17 14 9 9 10 13 14 14 15
24 26 26 25 21 14 12 12 12 19 15 8 5 5 10 15 7 7 10 14 10 7 7 7 17 17 6 8 3 7 4 6 5 7 8 5 4 12 14 17 12 11 15 12 17 17 13 11 10 13 15 15 14 13
27 25 20 23 27 13 4 11 13 9 10 9 11 13 10 8 10 9 6 5 8 2 7 5 10 13 14 8 6 3 2 5 1 3 4 3 2 14 24 23 22 20 23 20 19 19 16 17 18 21 21 21 18 14
26 28 15 17 17 12 10 10 11 7 8 6 6 7 6 6 5 7 5 5 8 13 5 8 8 7 10 8 10 4 4 5 4 3 2 7 17 28 28 28 28 24 23 23 22 21 23 24 24 25 26 25 21 17
25 27 23 16 13 10 6 10 12 5 6 6 6 7 5 2 8 8 12 11 22 23 22 17 8 6 7 6 3 5 3 4 5 5 8 15 20 29 29 28 27 25 23 24 22 22 21 20 19 19 20 20 22 23
16 24 30 26 10 7 9 13 10 6 7 8 9 6 7 15 10 14 19 23 18 25 16 5 7 6 5 6 5 7 3 4 7 11 13 22 19 26 27 26 26 25 24 21 20 20 16 12 11 13 13 14 18 24
15 17 19 22 19 12 10 13 16 6 6 7 8 11 15 7 18 16 22 21 25 17 5 6 5 5 4 5 6 9 10 8 8 18 25 22 21 27 25 23 21 21 21 18 17 16 11 6 5 5 8 12 16 22
14 10 19 21 20 16 18 13 7 5 7 7 5 7 17 16 20 22 20 27 29 19 4 5 1 7 6 6 6 8 5 9 17 32 26 19 21 20 20 21 18 16 15 13 12 10 6 2 3 5 10 12 15 25
8 18 21 24 25 14 8 8 7 5 7 5 11 19 16 15 21 22 25 28 29 26 17 9 12 9 8 9 4 6 4 25 26 24 21 18 16 16 16 14 12 11 11 9 8 6 3 4 8 8 9 12 10 24
14 17 19 19 23 8 6 6 4 9 5 9 14 11 13 12 12 17 23 26 26 21 10 12 9 7 5 7 6 19 23 22 21 25 22 19 16 15 13 12 10 8 7 7 9 6 2 4 6 10 12 17 16 18
16 15 22 18 13 5 6 1 4 8 9 12 14 11 9 11 9 15 24 26 28 11 12 8 6 12 12 10 4 11 18 17 16 29 28 23 21 18 13 13 13 10 8 7 8 8 11 6 4 7 12 11 15 19
16 20 20 14 4 4 4 7 7 5 11 10 10 8 4 4 10 19 24 21 22 12 10 15 24 24 15 14 16 20 26 26 27 23 20 14 13 12 11 10 5 8 5 7 9 4 3 7 9 11 12 10 12 16
17 24 7 7 3 4 6 5 11 13 7 10 8 5 4 2 12 16 25 23 11 12 22 25 26 22 16 23 22 21 20 18 15 19 14 14 16 17 15 10 5 8 12 10 8 10 11 10 14 14 9 10 4 13
20 13 6 4 4 4 6 6 5 7 7 10 10 3 2 2 7 2 10 11 10 21 25 25 22 10 13 20 20 21 20 16 13 7 15 13 12 12 11 13 15 11 6 9 10 11 16 15 11 12 10 6 6 10
14 4 4 4 4 8 4 2 2 3 5 5 5 3 7 6 4 7 9 8 16 21 23 29 26 22 15 18 23 22 21 19 13 12 14 14 13 12 13 11 12 13 16 13 14 16 22 21 12 9 9 7 3 9
6 2 5 8 3 6 7 9 6 2 4 5 5 6 7 6 1 6 6 9 17 19 24 25 21 21 24 19 19 21 23 21 17 17 16 16 15 15 13 13 11 12 15 21 23 25 22 19 16 13 11 6 4 14
5 2 3 10 7 7 8 6 7 9 6 5 6 8 11 6 7 7 7 14 13 17 22 25 26 24 20 18 22 21 20 17 16 16 17 18 16 17 21 25 22 21 28 22 24 25 24 21 17 12 3 1 13 13
5 4 7 7 5 6 7 8 10 2 7 9 6 7 8 6 7 6 6 10 13 15 18 18 17 20 18 19 19 19 18 16 15 11 12 16 16 19 19 20 20 23 24 20 21 21 24 27 29 15 3 4 3 6
4 5 3 1 5 2 5 7 6 8 8 9 6 5 4 4 4 7 5 9 9 17 13 12 14 15 16 12 15 17 19 18 14 17 6 13 16 22 26 23 25 32 26 21 21 22 22 22 23 20 5 9 10 9
3 4 3 2 3 3 4 6 8 8 10 10 9 5 2 3 2 5 4 9 10 9 9 10 14 15 16 12 10 11 15 18 19 21 21 21 24 25 27 26 25 26 26 28 31 28 27 24 13 1 10 17 17 14
2 3 2 2 3 2 3 4 5 8 7 4 1 2 4 3 3 3 6 6 8 11 8 8 9 13 15 17 15 16 14 15 18 19 20 23 26 28 27 27 27 28 27 26 26 25 26 20 15 4 9 9 10 14
2 1 2 2 1 6 5 4 4 3 3 4 3 4 1 1 2 5 11 8 6 9 9 8 9 9 12 14 16 17 15 18 18 18 23 21 23 26 30 30 27 26 27 27 24 23 24 24 12 9 17 8 8 7
1 3 4 1 4 5 4 2 1 1 2 2 2 2 2 3 4 10 12 9 7 6 4 4 7 8 12 13 14 16 21 19 20 24 34 34 34 35 33 29 28 28 26 26 22 22 23 19 18 12 12 19 11 15
4 2 3 2 7 6 6 6 5 2 3 1 2 1 4 6 2 8 8 10 10 11 12 11 10 11 14 13 16 16 19 19 33 39 45 47 39 33 28 26 28 23 21 19 19 20 19 19 15 10 16 17 12 19
Wind_Direction_850mb
304 305 306 307 307 307 307 304 301 316 336 342 315 316 324 318 308 296 294 283 280 279 278 280 280 279 275 273 278 304 306 231 245 239 249 250 252 246 249 252 190 224 214 220 230 235 245 173 157 245 64 8 322 322
306 306 307 307 308 307 304 300 288 290 312 337 329 314 311 311 308 288 285 265 265 265 275 286 273 264 258 256 269 262 275 297 316 286 244 268 231 247 227 236 238 214 217 252 239 74 111 141 83 37 349 314 303 319
305 306 307 307 306 304 302 301 288 273 287 309 307 292 299 295 307 286 282 279 284 286 295 273 267 256 246 253 252 249 250 268 264 298 291 306 271 282 233 238 214 246 196 225 158 179 178 165 262 271 288 342 347 315
308 308 308 307 306 304 301 299 299 273 276 288 301 293 295 291 294 295 280 285 282 287 285 297 317 261 257 253 244 236 244 243 282 273 277 259 282 340 341 278 242 59 282 242 224 232 195 224 100 50 309 291 297 316
311 310 308 306 305 302 297 293 291 272 270 281 288 297 293 289 280 290 285 277 267 260 296 297 294 291 258 250 238 239 245 244 244 261 245 243 259 264 243 253 240 186 235 241 294 351 335 97 77 318 296 320 321 321
319 315 311 308 306 304 298 291 284 279 266 290 290 294 296 298 287 295 292 222 263 255 305 285 308 265 235 236 254 231 218 231 226 262 252 253 210 241 263 260 257 275 208 259 291 143 53 164 242 272 309 316 323 319
319 318 319 316 307 304 301 296 293 280 279 293 292 296 296 281 273 258 272 322 299 303 262 270 282 7 263 281 273 211 191 207 230 241 248 251 209 212 246 241 316 144 162 183 138 163 236 84 257 312 297 294 307 316
329 327 325 320 312 307 296 309 309 297 297 297 291 295 293 286 280 275 270 256 263 258 250 266 286 210 3 329 288 185 185 202 221 246 262 246 173 215 218 245 182 142 170 158 171 181 213 307 256 68 299 304 309 311
345 338 335 339 336 324 304 286 308 304 300 299 305 306 294 263 245 235 264 259 265 237 302 257 288 336 291 255 261 198 180 206 217 229 229 252 200 214 236 199 153 161 148 143 176 189 142 123 66 47 10 331 319 324
353 355 351 341 346 322 325 311 317 308 315 319 319 263 253 227 294 286 290 189 213 219 235 270 299 288 309 356 304 168 187 267 191 212 184 221 230 193 157 130 127 147 149 168 178 158 130 107 56 17 7 353 342 340
355 355 353 342 334 315 317 314 318 319 334 327 295 282 311 308 286 246 229 210 186 223 222 297 304 308 280 276 25 157 203 273 244 183 186 206 213 155 176 171 178 165 158 155 108 96 100 77 44 27 19 18 18 16
353 351 354 353 358 343 246 316 327 354 303 291 296 297 288 260 246 261 253 240 233 42 165 270 311 306 298 304 293 9 292 252 144 136 153 158 139 130 135 142 130 131 135 123 121 111 96 80 66 58 50 41 34 30
354 353 350 345 351 13 352 350 340 329 331 307 276 255 232 237 301 259 29 356 9 8 31 313 323 291 275 250 266 214 300 41 133 83 254 111 156 155 121 123 123 124 118 122 119 115 106 90 76 67 57 46 36 25
11 21 19 357 341 344 359 339 336 332 3 298 302 289 266 317 17 12 357 353 330 324 328 329 284 242 282 277 307 273 265 117 210 195 87 131 130 115 124 120 128 118 123 126 123 125 117 99 80 66 54 44 34 26
20 23 20 1 17 0 347 348 17 28 322 298 301 309 353 29 50 19 355 314 328 331 333 274 260 255 283 277 257 268 247 33 0 97 117 123 120 120 116 110 116 123 127 126 128 133 127 117 85 61 44 31 26 16
18 23 1 17 22 15 1 358 11 333 296 294 299 327 6 349 15 9 334 354 341 319 273 244 295 269 252 294 331 39 334 5 94 98 104 115 112 115 121 118 120 124 123 122 128 135 124 113 70 46 20 11 9 3
34 357 352 359 4 11 7 20 345 306 313 280 302 343 338 347 344 351 353 2 358 1 7 206 242 28 353 304 47 2 27 91 99 93 95 100 112 121 123 123 126 131 128 127 134 146 138 108 342 337 356 349 355 1
4 335 344 355 0 1 352 354 324 300 271 331 326 5 346 333 338 358 355 5 7 5 356 3 325 22 19 17 25 308 159 93 76 81 80 88 103 116 123 131 136 139 143 153 164 159 173 294 323 330 331 340 337 1
325 327 337 344 358 40 340 340 358 291 314 346 336 352 325 340 3 354 13 16 6 358 5 12 34 16 343 303 302 69 66 68 81 83 84 80 90 99 109 121 125 129 146 170 186 202 110 338 347 348 353 2 1 5
354 357 354 352 17 352 307 316 330 278 304 3 320 340 336 6 356 23 40 21 4 34 46 34 16 312 315 356 52 36 42 71 75 85 79 74 84 82 71 83 96 130 130 146 177 233 258 306 321 359 352 353 6 3
3 322 342 31 330 328 288 311 266 330 325 305 356 324 329 15 53 47 49 30 38 28 15 357 -0 348 357 50 44 45 43 49 58 65 47 53 67 86 93 85 67 72 80 97 162 146 167 15 8 354 345 357 358 8
310 332 17 10 328 314 283 310 303 311 280 299 285 310 328 38 82 59 62 38 32 356 357 355 1 355 50 55 49 44 41 58 76 74 27 15 57 59 47 43 69 64 73 66 41 21 12 4 355 346 332 338 9 19
343 2 6 325 319 275 276 339 295 332 305 342 313 259 152 54 69 92 83 39 20 357 359 3 357 21 47 65 58 47 33 33 73 15 14 20 42 43 43 47 47 62 69 39 11 350 351 353 328 344 344 11 349 21
353 352 309 303 293 283 315 259 250 291 292 294 267 243 69 36 10 75 83 63 5 360 7 7 11 34 59 53 47 34 33 36 29 55 30 21 40 43 32 39 55 37 21 18 356 19 349 353 352 23 2 349 36 6
304 321 277 255 265 332 312 349 354 21 301 13 343 35 36 343 129 64 70 53 21 13 0 6 18 18 20 32 34 39 34 34 39 35 29 21 0 19 14 359 12 48 27 12 360 347 351 4 2 9 1 354 92 21
272 152 254 18 24 8 340 305 346 1 30 4 44 5 2 358 52 55 53 13 8 6 2 1 359 8 19 31 24 24 17 20 20 34 20 13 12 357 345 339 345 352 357 358 341 333 328 336 351 333 348 267 226 332
266 97 88 24 20 341 307 300 325 351 42 12 38 20 12 35 48 56 27 360 5 6 358 352 351 4 13 24 22 19 16 13 16 17 26 21 19 11 4 355 346 335 341 347 337 332 326 337 336 332 256 173 311 70
309 6 62 119 16 314 283 305 325 19 45 3 346 62 44 22 27 9 6 18 11 11 350 355 3 5 5 5 18 15 20 23 19 8 347 11 9 357 3 358 348 349 350 338 331 332 328 325 323 326 147 191 267 127
307 17 15 85 40 304 315 345 14 41 4 354 1 64 58 45 24 4 16 352 354 343 347 356 360 11 11 3 7 8 7 12 10 7 3 353 350 346 346 348 344 343 343 341 343 349 352 347 345 66 175 302 258 191
91 348 299 118 126 298 41 16 12 345 351 344 348 89 98 86 68 1 354 346 339 346 345 348 351 9 6 4 5 7 8 6 5 0 349 344 338 333 334 335 338 338 334 341 345 344 348 342 343 317 273 333 248 217
328 66 308 289 86 56 34 34 44 63 21 24 53 89 105 126 148 51 5 354 318 316 328 348 1 349 2 8 1 349 340 346 347 345 331 334 324 322 324 331 328 324 325 330 332 332 335 338 307 231 302 231 245 179
120 234 299 237 115 121 107 102 23 341 41 12 149 159 244 239 69 20 1 29 27 25 348 298 304 327 340 340 334 335 331 329 320 334 328 322 316 317 316 322 319 315 321 321 323 320 324 331 333 275 232 271 260 193
146 156 329 115 148 181 174 188 171 90 342 148 133 79 23 47 44 16 4 355 354 3 359 343 342 326 322 333 326 333 336 328 317 328 324 323 324 321 316 318 321 326 325 322 313 313 319 324 320 248 215 270 250 197